Regional Weather Roundup
Issued by NWS Little Rock, AR

Home | Current Version | Previous Version | Graphics & Text | Print | Product List | Glossary Off
Versions: 1 2 3 4 5 6 7 8 9 10 11 12 13 14 15 16 17 18 19 20 21 22 23 24 25 26 27 28 29 30 31 32 33 34 35 36 37 38 39 40 41 42 43 44 45 46 47 48 49 50

000
ASUS44 KLZK 040105
RWRLZK

WEATHER ROUNDUP FOR ARKANSAS
NATIONAL WEATHER SERVICE LITTLE ROCK AR
800 PM CDT THU SEP 03 2015

NOTE: "FAIR" INDICATES FEW OR NO CLOUDS BELOW 12,000 FEET WITH NO
SIGNIFICANT WEATHER AND/OR OBSTRUCTIONS TO VISIBILITY.

ARZ001-003-010-029-040200-
NORTHWEST ARKANSAS

CITY           SKY/WX    TMP DP  RH WIND       PRES   REMARKS
FAYETTEVILLE   CLEAR     76  71  85 CALM      29.93F
FORT SMITH     CLEAR     84  68  58 E6        29.87S HX  87
HARRISON       CLEAR     78  69  73 CALM      29.95F
BENTONVILLE    CLEAR     81  64  57 CALM      29.94F
ROGERS         CLEAR     80  68  66 CALM      29.94F
SILOAM SPGS    CLEAR     79  64  61 SE5       29.91F
HIGHFILL       CLEAR     80  68  66 CALM      29.93F
SPRINGDALE     CLEAR     82  66  57 SE5       29.95F HX  85
$$

ARZ004-005-016-040200-
NORTH CENTRAL ARKANSAS

CITY           SKY/WX    TMP DP  RH WIND       PRES   REMARKS
BATESVILLE     PTCLDY    82  70  65 E5        29.92R HX  86
FLIPPIN        CLEAR     84  64  51 CALM      29.91S HX  86
MTN HOME       CLEAR     81  69  67 CALM      29.92F
$$

ARZ040-041-040200-
WEST CENTRAL ARKANSAS

CITY           SKY/WX    TMP DP  RH WIND       PRES   REMARKS
MENA           CLEAR     84  66  54 CALM      29.93S HX  86
MOUNT IDA      CLEAR     83  66  56 CALM      29.89F HX  85
$$

ARZ009-017-025-026-028-040200-
NORTHEAST ARKANSAS

CITY           SKY/WX    TMP DP  RH WIND       PRES   REMARKS
JONESBORO      PTCLDY    77  72  84 NW3       29.92R
NEWPORT        CLEAR     83  71  66 E3        29.92S HX  87
WALNUT RIDGE   CLEAR     82  68  61 SW3       29.91S HX  85
BLYTHEVILLE    CLEAR     83  74  74 CALM      29.92S HX  89
$$

ARZ022-023-033-042-044-040200-
CENTRAL ARKANSAS

CITY           SKY/WX    TMP DP  RH WIND       PRES   REMARKS
LITTLE ROCK    PTCLDY    87  68  52 SE5       29.90S HX  90
N LITTLE ROCK  PTCLDY    86  71  61 SE6       29.90S HX  91
JACKSONVILLE   CLEAR     82  70  66 E2        29.90S HX  85
SEARCY         PTCLDY    80  72  76 CALM      29.92S
HOT SPRINGS    CLEAR     87  67  51 CALM      29.90F HX  90
RUSSELLVILLE   CLEAR     82  68  62 CALM      29.88F HX  85
$$

ARZ036-040200-
EAST ARKANSAS

CITY           SKY/WX    TMP DP  RH WIND       PRES   REMARKS
WEST MEMPHIS   PTCLDY    79  75  87 CALM      29.90S
$$

ARZ050-053-066-070-073-040200-
SOUTHWEST ARKANSAS

CITY           SKY/WX    TMP DP  RH WIND       PRES   REMARKS
ARKADELPHIA    FAIR      81  74  79 CALM      29.89S HX  86
CAMDEN         CLEAR     81  68  65 NE3       29.88S
TEXARKANA      CLEAR     83  67  58 CALM      29.88F HX  85
EL DORADO      CLEAR     83  69  62 NE3       29.88S HX  86
DE QUEEN       CLEAR     83  69  62 CALM      29.86F HX  86
$$

ARZ056-057-069-040200-
SOUTHEAST ARKANSAS

CITY           SKY/WX    TMP DP  RH WIND       PRES   REMARKS
PINE BLUFF     CLEAR     82  70  66 E5        29.90S HX  86
STUTTGART      CLEAR     88  66  48 E3        29.91S HX  90
MONTICELLO     PTCLDY    85  71  63 CALM      29.89S HX  90

$$





USA.gov is the U.S. government's official web portal to all federal, state and local government web resources and services.